Regional Weather Roundup
Issued by NWS

Home | Current Version | Previous Version | Graphics & Text | Print | Product List | Glossary Off
Versions: 1 2 3 4 5 6 7 8 9 10 11 12 13 14 15 16 17 18 19 20 21 22 23 24 25 26 27 28 29 30 31 32 33 34 35 36 37 38 39 40 41 42 43 44 45 46 47 48 49 50

000
ASUS43 KOAX 261810
RWRNE

WEATHER ROUNDUP FOR NEBRASKA
NATIONAL WEATHER SERVICE OMAHA NE
100 PM CDT TUE SEP 26 2017

NOTES: SATELLITE DATA IS BEING USED TO AUGMENT CLOUD COVER ABOVE
       12000 FEET.
       "FAIR" INDICATES FEW OR NO CLOUDS BELOW 12,000 FEET WITH NO
       SIGNIFICANT WEATHER AND/OR OBSTRUCTIONS TO VISIBILITY.


NEZ001>004-019>022-054>056-261900-
NEBRASKA PANHANDLE

CITY           SKY/WX    TMP DP  RH WIND       PRES   REMARKS
SCOTTSBLUFF    SUNNY     59  41  51 NW7       30.19F
6HR MIN TEMP:  34; 6HR MAX TEMP:  59;

ALLIANCE       SUNNY     62  35  36 W12G17    30.17F
6HR MIN TEMP:  32; 6HR MAX TEMP:  62;

CHADRON        SUNNY     61  39  44 NW7       30.17F
6HR MIN TEMP:  36; 6HR MAX TEMP:  62;

GORDON         FAIR      61  41  47 W12       30.16S
6HR MIN TEMP:  37; 6HR MAX TEMP:  61;

KIMBALL        SUNNY     58  39  48 NW5       30.21F
SIDNEY         SUNNY     62  38  40 VRB3      30.20F
6HR MIN TEMP:  30; 6HR MAX TEMP:  62;

$$

NEZ057>060-069>072-079>082-261900-
SOUTHWEST NEBRASKA

CITY           SKY/WX    TMP DP  RH WIND       PRES   REMARKS
NORTH PLATTE   SUNNY     63  45  51 NW8       30.17F
6HR MIN TEMP:  47; 6HR MAX TEMP:  63;

IMPERIAL       SUNNY     62  45  53 NW8       30.19F
6HR MIN TEMP:  43; 6HR MAX TEMP:  63;

LEXINGTON      SUNNY     60  47  60 N7        30.18S
MCCOOK         SUNNY     58  48  69 CALM      30.19S
6HR MIN TEMP:  43; 6HR MAX TEMP:  60;

OGALLALA       SUNNY     62  46  55 W5        30.18F
$$

NEZ005>010-023>029-035>040-094-261900-
NORTH CENTRAL NEBRASKA

CITY           SKY/WX    TMP DP  RH WIND       PRES   REMARKS
VALENTINE      MOSUNNY   64  45  49 S8        30.14F
6HR MIN TEMP:  37; 6HR MAX TEMP:  65;

AINSWORTH      SUNNY     59  44  58 NW3       30.16F
BROKEN BOW     SUNNY     60  45  57 NW6       30.16F
6HR MIN TEMP:  48; 6HR MAX TEMP:  61;

O`NEILL        SUNNY     56  48  75 N7        30.17F
ORD            SUNNY     60  44  55 N6        30.16S
6HR MIN TEMP:  46; 6HR MAX TEMP:  60;

THEDFORD       SUNNY     61  43  51 CALM      30.17F
$$

NEZ041-046>049-061>064-073>077-083>087-261900-
SOUTH CENTRAL NEBRASKA

CITY           SKY/WX    TMP DP  RH WIND       PRES   REMARKS
GRAND ISLAND   PTSUNNY   59  49  69 N16       30.16F
6HR MIN TEMP:  49; 6HR MAX TEMP:  58;

AURORA         PTSUNNY   58  49  72 N10       30.16F
HASTINGS       PTSUNNY   56  47  71 N12       30.18S
6HR MIN TEMP:  49; 6HR MAX TEMP:  57;

HEBRON         CLOUDY    57  51  79 N7        30.17S
HOLDREGE       CLOUDY    55  47  75 NW3       30.19R
KEARNEY        MOSUNNY   55  46  71 N12       30.18F
YORK           CLOUDY    55  50  82 NW10      30.16S
$$

NEZ011>018-030>034-042>045-261900-
NORTHEAST NEBRASKA

CITY           SKY/WX    TMP DP  RH WIND       PRES   REMARKS
NORFOLK        PTSUNNY   57  47  69 NW8G18    30.14F
6HR MIN TEMP:  49; 6HR MAX TEMP:  58;

ALBION         CLOUDY    56  48  75 NW6       30.18S
BLAIR          CLOUDY    58  52  80 NW9       30.13S
COLUMBUS       CLOUDY    58  48  69 N9        30.16F
FREMONT        CLOUDY    58  51  75 NW9       30.14F
TEKAMAH        CLOUDY    59  50  72 NW12      30.13F
6HR MIN TEMP:  53; 6HR MAX TEMP:  60;

WAYNE          CLOUDY    56  50  79 NW10      30.15S
$$

NEZ050>053-065>068-078-088>093-261900-
SOUTHEAST NEBRASKA

CITY           SKY/WX    TMP DP  RH WIND       PRES   REMARKS
LINCOLN        PTSUNNY   62  50  64 N12       30.15S
6HR MIN TEMP:  54; 6HR MAX TEMP:  62;

OMAHA EPPLEY   PTSUNNY   60  51  72 N12       30.13S
6HR MIN TEMP:  55; 6HR MAX TEMP:  60; 6HR PCP: TRACE;

BEATRICE       CLOUDY    61  52  72 N8        30.14S
FALLS CITY     CLOUDY    61  54  77 N10       30.10S
6HR MIN TEMP:  57; 6HR MAX TEMP:  62;

NEBRASKA CITY  CLOUDY    59  56  89 N7        30.13S
PLATTSMOUTH    CLOUDY    60  54  81 NW9       30.13R
$$

NEZ044-045-051>053-067-261900-
OMAHA AREA

CITY           SKY/WX    TMP DP  RH WIND       PRES   REMARKS
OMAHA EPPLEY   PTSUNNY   60  51  72 N12       30.13S
6HR MIN TEMP:  55; 6HR MAX TEMP:  60; 6HR PCP: TRACE;

BLAIR          CLOUDY    58  52  80 NW9       30.13S
FREMONT        CLOUDY    58  51  75 NW9       30.14F
MILLARD        CLOUDY    60  51  74 NW10      30.13S
OFFUTT AFB     CLOUDY    61  52  72 NW13      30.12S
PLATTSMOUTH    CLOUDY    60  54  81 NW9       30.13R
WAHOO          CLOUDY    59  50  72 NW10G16   30.13F
$$




USA.gov is the U.S. government's official web portal to all federal, state and local government web resources and services.